OE-11144 Weather Reports


time (UTC)temp
F
wind
direction
speed
knots
gust
knots
rain 1hr
in
rain 24hr
in
rain mn
in
humidity
%
barometer
mb
20260903072528 60 233 2.6 3.5 0.00 0.00 0.00 82 1023.4
20260903071142 59 241 3.5 5.2 0.00 0.00 0.00 83 1023.5
20260903070529 60 248 3.5 6.1 0.00 0.00 0.00 84 1023.5
20260903065529 60 232 3.5 4.3 0.00 0.00 0.00 85 1023.4
20260903064141 59 224 3.5 5.2 0.00 0.00 0.00 84 1023.6
20260903063528 59 225 2.6 3.5 0.00 0.00 0.00 87 1023.4
20260903062529 59 239 2.6 4.3 0.00 0.00 0.00 86 1023.6
20260903061142 58 261 1.7 3.5 0.00 0.00 0.00 91 1023.7
20260903060529 57 221 0.9 1.7 0.00 0.00 0.00 91 1023.7
20260903055528 57 243 1.7 3.5 0.00 0.00 0.00 92 1023.7
20260903054141 56 254 1.7 2.6 0.00 0.00 0.00 93 1023.7
20260903053529 56 298 1.7 2.6 0.00 0.00 0.00 92 1023.7
20260903052529 56 229 0.9 1.7 0.00 0.00 0.00 92 1023.6
20260903051142 56 199 2.6 3.5 0.00 0.00 0.00 92 1023.5
20260903050528 56 211 0.9 1.7 0.00 0.00 0.00 93 1023.5
20260903045529 56 293 1.7 2.6 0.00 0.00 0.00 91 1023.4
20260903044141 56 254 0.9 2.6 0.00 0.00 0.00 92 1023.3
20260903043528 56 196 1.7 1.7 0.00 0.00 0.00 91 1023.4
20260903042529 56 159 0.9 3.5 0.00 0.00 0.00 91 1023.4
20260903041141 57 271 2.6 3.5 0.00 0.00 0.00 91 1023.3
20260903040529 57 272 1.7 3.5 0.00 0.00 0.00 91 1023.3
20260903035529 56 196 1.7 2.6 0.00 0.00 0.00 92 1023.4
20260903034528 57 276 0.9 2.6 0.00 0.00 0.00 92 1023.3
20260903033528 56 254 0.9 3.5 0.00 0.00 0.00 93 1023.4
20260903032529 56 211 0.9 2.6 0.00 0.00 0.00 92 1023.4
20260903031142 56 346 0.9 1.7 0.00 0.00 0.00 92 1023.4
20260903030529 56 208 0.9 2.6 0.00 0.00 0.00 93 1023.3
20260903025529 56 178 2.6 3.5 0.00 0.00 0.00 94 1023.3
20260903024529 56 262 0.0 2.6 0.00 0.00 0.00 93 1023.3
20260903023529 56 287 2.6 3.5 0.00 0.00 0.00 93 1023.1
20260903022529 56 242 1.7 2.6 0.00 0.00 0.00 93 1023.2
20260903021141 56 165 2.6 3.5 0.00 0.00 0.00 94 1023.1
20260903020529 57 307 0.9 1.7 0.00 0.00 0.00 92 1023.0
20260903015529 57 226 0.9 1.7 0.00 0.00 0.00 92 1023.0
20260903014141 57 196 0.9 1.7 0.00 0.00 0.00 93 1023.1
20260903013528 58 214 0.9 1.7 0.00 0.00 0.00 93 1022.9
20260903012528 58 263 1.7 1.7 0.00 0.00 0.00 92 1022.9
20260903011142 58 297 1.7 3.5 0.00 0.00 0.00 89 1022.8
20260903010529 58 188 0.9 1.7 0.00 0.00 0.00 89 1022.8
20260903005529 58 108 0.9 1.7 0.00 0.00 0.00 88 1022.8
20260903004142 59 82 0.9 1.7 0.00 0.00 0.00 83 1022.7
20260903003529 59 64 1.7 1.7 0.00 0.00 0.00 83 1022.4
20260903002529 58 69 0.9 1.7 0.00 0.00 0.00 89 1022.8
20260903001541 59 167 0.0 1.7 0.00 0.00 0.00 89 1022.8
20260903000528 58 200 0.9 0.9 0.00 0.00 0.00 90 1022.6
20260902235528 58 257 0.0 1.7 0.00 0.00 0.00 90 1022.8
20260902234142 58 285 1.7 2.6 0.00 0.00 0.00 92 1022.8
20260902233528 58 204 1.7 2.6 0.00 0.00 0.00 91 1023.0
20260902232528 58 174 0.0 1.7 0.00 0.00 0.00 89 1022.8
20260902231529 58 18 0.9 1.7 0.00 0.00 0.00 91 1022.6
20260902230528 58 360 0.0 1.7 0.00 0.00 0.00 89 1022.6
20260902225529 58 198 0.9 2.6 0.00 0.00 0.00 91 1022.6
20260902224142 59 27 0.0 1.7 0.00 0.00 0.00 88 1022.4
20260902223529 59 330 0.9 1.7 0.00 0.00 0.00 87 1022.4
20260902222529 60 277 0.9 1.7 0.00 0.00 0.00 85 1022.1
20260902221142 60 160 1.7 2.6 0.00 0.00 0.00 85 1022.1
20260902220528 60 28 0.0 2.6 0.00 0.00 0.00 85 1021.9
20260902215528 61 260 0.9 1.7 0.00 0.00 0.00 81 1021.7
20260902214142 60 189 0.9 1.7 0.00 0.00 0.00 85 1021.8
20260902213528 61 127 0.9 1.7 0.00 0.00 0.00 84 1021.6
20260902211142 61 232 1.7 4.3 0.00 0.00 0.00 84 1021.6
20260902210529 62 297 2.6 3.5 0.00 0.00 0.00 78 1021.4
20260902205529 62 186 1.7 2.6 0.00 0.00 0.00 81 1021.4
20260902204143 62 341 1.7 5.2 0.00 0.00 0.00 81 1021.2
20260902203528 61 253 1.7 4.3 0.00 0.00 0.00 84 1021.3
20260902202529 62 120 2.6 4.3 0.00 0.00 0.00 80 1021.1
20260902201142 63 132 1.7 3.5 0.00 0.00 0.00 76 1021.1
20260902200529 62 180 0.9 2.6 0.00 0.00 0.00 80 1021.2
20260902195529 62 342 0.9 2.6 0.00 0.00 0.00 82 1021.1
20260902194142 63 274 1.7 3.5 0.00 0.00 0.00 78 1020.9
20260902193529 62 185 0.9 3.5 0.00 0.00 0.00 82 1021.0
20260902192528 63 240 0.9 2.6 0.00 0.00 0.00 79 1020.6
20260902191142 62 195 1.7 3.5 0.00 0.00 0.00 79 1020.6
20260902190528 65 216 1.7 2.6 0.00 0.00 0.00 69 1019.9
20260902185529 65 167 0.9 2.6 0.00 0.00 0.00 71 1019.9
20260902184142 65 220 1.7 4.3 0.00 0.00 0.00 74 1019.8
20260902183529 66 155 1.7 3.5 0.00 0.00 0.00 67 1019.3
20260902182529 67 261 1.7 3.5 0.00 0.00 0.00 62 1018.7
20260902181142 65 185 0.9 4.3 0.00 0.00 0.00 75 1018.9
20260902180529 66 197 2.6 4.3 0.00 0.00 0.00 72 1018.5
20260902175529 67 229 3.5 5.2 0.00 0.00 0.00 73 1018.3
20260902174142 68 313 1.7 3.5 0.00 0.00 0.00 72 1017.9
20260902173528 67 204 1.7 3.5 0.00 0.00 0.00 75 1017.8
20260902172529 68 188 1.7 4.3 0.00 0.00 0.00 71 1017.4
20260902171142 69 269 2.6 4.3 0.00 0.00 0.00 70 1017.3
20260902170529 71 281 2.6 3.5 0.00 0.00 0.00 60 1016.9
20260902165529 72 294 2.6 5.2 0.00 0.00 0.00 56 1016.5
20260902164142 72 225 2.6 5.2 0.00 0.00 0.00 63 1016.5
20260902163529 73 242 4.3 7.0 0.00 0.00 0.00 54 1016.5
20260902162529 73 274 6.1 7.8 0.00 0.00 0.00 56 1016.4
20260902161142 74 300 5.2 7.8 0.00 0.00 0.00 56 1016.2
20260902160528 76 317 2.6 7.0 0.00 0.00 0.00 50 1015.8
20260902155529 77 6 6.1 8.7 0.00 0.00 0.00 36 1015.8
20260902154142 77 25 4.3 8.7 0.00 0.00 0.00 36 1015.7
20260902153529 77 14 6.1 10.4 0.00 0.00 0.00 36 1015.8
20260902152528 78 360 7.0 11.3 0.00 0.00 0.00 36 1015.7
20260902151142 78 15 7.8 13.9 0.00 0.00 0.00 37 1015.7
20260902150529 78 4 7.8 13.0 0.00 0.00 0.00 33 1016.1
20260902145529 78 16 7.0 10.4 0.00 0.00 0.00 35 1015.8
20260902144142 78 28 7.8 13.0 0.00 0.00 0.00 37 1015.8
20260902143528 78 20 7.0 12.2 0.00 0.00 0.00 38 1015.8
20260902142529 78 13 8.7 12.2 0.00 0.00 0.00 39 1015.8
20260902141142 78 9 7.8 11.3 0.00 0.00 0.00 37 1016.0
20260902140529 78 5 7.0 10.4 0.00 0.00 0.00 38 1016.1
20260902135529 77 10 7.8 10.4 0.00 0.00 0.00 41 1016.1
20260902134141 77 9 7.8 10.4 0.00 0.00 0.00 39 1016.2
20260902133529 77 13 8.7 13.0 0.00 0.00 0.00 41 1016.3
20260902132529 77 22 7.8 13.9 0.00 0.00 0.00 42 1016.3
20260902131142 76 16 7.8 11.3 0.00 0.00 0.00 43 1016.3
20260902130529 76 62 5.2 10.4 0.00 0.00 0.00 46 1016.6
20260902125529 76 43 5.2 8.7 0.00 0.00 0.00 46 1016.6
20260902124141 76 14 6.1 9.6 0.00 0.00 0.00 44 1016.8
20260902123529 75 28 7.8 13.0 0.00 0.00 0.00 43 1017.0
20260902122529 76 46 8.7 13.0 0.00 0.00 0.00 44 1016.9
20260902121142 75 55 8.7 11.3 0.00 0.00 0.00 45 1017.2
20260902120528 75 55 7.0 11.3 0.00 0.00 0.00 46 1017.3
20260902115528 74 41 7.0 11.3 0.00 0.00 0.00 44 1017.5
20260902114142 74 31 7.0 9.6 0.00 0.00 0.00 45 1017.6
20260902113529 74 29 8.7 12.2 0.00 0.00 0.00 47 1017.7
20260902112529 74 58 7.0 10.4 0.00 0.00 0.00 49 1017.9
20260902111142 73 89 4.3 10.4 0.00 0.00 0.00 52 1018.2
20260902110529 72 110 2.6 5.2 0.00 0.00 0.00 54 1018.6
20260902105528 71 103 1.7 5.2 0.00 0.00 0.00 56 1018.8
20260902104142 71 85 2.6 7.0 0.00 0.00 0.00 57 1019.0
20260902103529 71 12 0.9 3.5 0.00 0.00 0.00 59 1019.1
20260902102528 69 41 3.5 6.1 0.00 0.00 0.00 58 1019.7
20260902101142 69 143 0.9 3.5 0.00 0.00 0.00 62 1019.7
20260902100529 69 77 1.7 4.3 0.00 0.00 0.00 62 1020.0
20260902095529 68 74 1.7 5.2 0.00 0.00 0.00 62 1020.1
20260902094142 69 183 0.9 3.5 0.00 0.00 0.00 62 1020.1
20260902093529 67 251 1.7 4.3 0.00 0.00 0.00 65 1020.5
20260902092529 67 242 0.9 3.5 0.00 0.00 0.00 65 1020.7
20260902091141 67 221 0.9 2.6 0.00 0.00 0.00 65 1020.7
20260902090529 66 203 1.7 3.5 0.00 0.00 0.00 67 1020.9
20260902084141 64 272 1.7 4.3 0.00 0.00 0.00 72 1021.4
20260902083529 63 258 1.7 3.5 0.00 0.00 0.00 73 1021.5
20260902082531 62 246 2.6 5.2 0.00 0.00 0.00 75 1021.6
20260902081141 62 234 1.7 3.5 0.00 0.00 0.00 77 1021.7
20260902080529 62 183 1.7 4.3 0.00 0.00 0.00 80 1021.8
20260902075529 61 194 2.6 5.2 0.00 0.00 0.00 82 1022.1
20260902074142 60 260 2.6 4.3 0.00 0.00 0.00 83 1022.2
20260902073528 59 238 3.5 5.2 0.00 0.00 0.00 84 1022.5